Time,TemperatureF,DewpointF,PressureIn,WindDirection,WindDirectionDegrees,WindSpeedMPH,WindSpeedGustMPH,Humidity,HourlyPrecipIn,Conditions,Clouds,dailyrainin,SoftwareType,DateUTC
2013-06-08 00:01:00,66.4,66.1,29.89,SW,225,0.0,0.0,99,0.00,RA,,0.00,WeatherDisplay:10.37,2013-06-08 04:01:00,
2013-06-08 00:02:00,66.4,66.1,29.89,SW,225,0.0,0.0,99,0.00,RA,,0.00,WeatherDisplay:10.37,2013-06-08 04:02:00,
2013-06-08 00:07:00,66.4,66.1,29.89,SW,225,0.0,0.0,99,0.00,RA,,0.00,WeatherDisplay:10.37,2013-06-08 04:07:00,
2013-06-08 00:12:00,66.4,66.1,29.89,SW,225,0.0,0.0,99,0.00,CLR,,0.00,WeatherDisplay:10.37,2013-06-08 04:12:00,
2013-06-08 00:17:00,66.4,66.1,29.89,SW,225,0.0,0.0,99,0.00,CLR,,0.00,WeatherDisplay:10.37,2013-06-08 04:17:00,
2013-06-08 00:22:00,66.6,66.3,29.89,SW,225,0.0,0.0,99,0.00,CLR,,0.00,WeatherDisplay:10.37,2013-06-08 04:22:00,
2013-06-08 00:27:00,66.6,66.3,29.90,SW,225,0.0,0.0,99,0.00,CLR,,0.00,WeatherDisplay:10.37,2013-06-08 04:27:00,
2013-06-08 00:32:00,66.7,66.5,29.90,SW,225,0.0,0.0,99,0.00,CLR,,0.00,WeatherDisplay:10.37,2013-06-08 04:32:00,
2013-06-08 00:37:00,66.7,66.5,29.90,SW,225,0.0,0.0,99,0.00,CLR,,0.00,WeatherDisplay:10.37,2013-06-08 04:37:00,
2013-06-08 00:42:00,66.7,66.5,29.90,SW,225,2.3,0.0,99,0.00,CLR,,0.00,WeatherDisplay:10.37,2013-06-08 04:42:00,
2013-06-08 00:47:00,66.7,66.5,29.90,SE,135,1.1,1.3,99,0.00,CLR,,0.00,WeatherDisplay:10.37,2013-06-08 04:47:00,
2013-06-08 00:52:00,66.7,66.5,29.89,SE,135,2.3,0.0,99,0.00,CLR,,0.00,WeatherDisplay:10.37,2013-06-08 04:52:00,
2013-06-08 00:57:00,66.9,66.6,29.90,South,180,2.3,2.3,99,0.00,CLR,,0.00,WeatherDisplay:10.37,2013-06-08 04:57:00,
2013-06-08 01:02:00,66.9,66.6,29.90,South,180,4.6,4.6,99,0.00,CLR,,0.00,WeatherDisplay:10.37,2013-06-08 05:02:00,
2013-06-08 01:07:00,66.7,66.5,29.90,South,180,4.6,0.0,99,0.00,CLR,,0.00,WeatherDisplay:10.37,2013-06-08 05:07:00,
2013-06-08 01:12:00,66.7,66.5,29.90,SW,225,1.1,0.0,99,0.00,CLR,,0.00,WeatherDisplay:10.37,2013-06-08 05:12:00,
2013-06-08 01:17:00,66.7,66.5,29.90,SW,225,0.0,0.0,99,0.00,CLR,,0.00,WeatherDisplay:10.37,2013-06-08 05:17:00,
2013-06-08 01:22:00,66.9,66.6,29.90,SW,225,0.0,0.0,99,0.00,CLR,,0.00,WeatherDisplay:10.37,2013-06-08 05:22:00,
2013-06-08 01:27:00,66.9,66.6,29.89,SE,135,1.1,1.3,99,0.00,CLR,,0.00,WeatherDisplay:10.37,2013-06-08 05:27:00,
2013-06-08 01:32:00,67.1,66.8,29.90,SW,225,2.3,0.0,99,0.00,CLR,,0.00,WeatherDisplay:10.37,2013-06-08 05:32:00,
2013-06-08 01:37:00,67.1,66.8,29.89,SW,225,0.0,0.0,99,0.00,CLR,,0.00,WeatherDisplay:10.37,2013-06-08 05:37:00,
2013-06-08 01:42:00,67.1,66.8,29.89,South,180,4.6,4.6,99,0.00,CLR,,0.00,WeatherDisplay:10.37,2013-06-08 05:42:00,
2013-06-08 01:47:00,67.3,67.0,29.90,SW,225,0.0,0.0,99,0.00,CLR,,0.00,WeatherDisplay:10.37,2013-06-08 05:47:00,
2013-06-08 01:52:00,67.3,67.0,29.90,South,180,2.3,2.3,99,0.00,CLR,,0.00,WeatherDisplay:10.37,2013-06-08 05:52:00,
2013-06-08 01:57:00,67.3,67.0,29.90,West,270,0.0,0.0,99,0.00,CLR,,0.00,WeatherDisplay:10.37,2013-06-08 05:57:00,
2013-06-08 02:02:00,67.3,67.0,29.89,South,180,0.0,0.0,99,0.00,CLR,,0.00,WeatherDisplay:10.37,2013-06-08 06:02:00,
2013-06-08 02:07:00,67.3,67.0,29.89,South,180,0.0,0.0,99,0.00,CLR,,0.00,WeatherDisplay:10.37,2013-06-08 06:07:00,
2013-06-08 02:12:00,67.1,66.8,29.89,SW,225,2.3,0.0,99,0.00,CLR,,0.00,WeatherDisplay:10.37,2013-06-08 06:12:00,
2013-06-08 02:17:00,67.1,66.8,29.89,South,180,0.0,0.0,99,0.00,CLR,,0.00,WeatherDisplay:10.37,2013-06-08 06:17:00,
2013-06-08 02:22:00,67.1,66.8,29.89,South,180,0.0,0.0,99,0.00,CLR,,0.00,WeatherDisplay:10.37,2013-06-08 06:22:00,
2013-06-08 02:27:00,66.9,66.6,29.89,West,270,0.0,0.0,99,0.00,CLR,,0.00,WeatherDisplay:10.37,2013-06-08 06:27:00,
2013-06-08 02:32:00,66.9,66.6,29.88,South,180,4.6,4.6,99,0.00,CLR,,0.00,WeatherDisplay:10.37,2013-06-08 06:32:00,
2013-06-08 02:37:00,66.7,66.5,29.89,South,180,0.0,0.0,99,0.00,CLR,,0.00,WeatherDisplay:10.37,2013-06-08 06:37:00,
2013-06-08 02:42:00,66.7,66.5,29.88,South,180,2.3,0.0,99,0.00,CLR,,0.00,WeatherDisplay:10.37,2013-06-08 06:42:00,
2013-06-08 02:47:00,66.6,66.3,29.89,South,180,0.0,0.0,99,0.00,CLR,,0.00,WeatherDisplay:10.37,2013-06-08 06:47:00,
2013-06-08 02:52:00,66.6,66.3,29.89,SW,225,0.0,0.0,99,0.00,CLR,,0.00,WeatherDisplay:10.37,2013-06-08 06:52:00,
2013-06-08 02:57:00,66.6,66.3,29.89,SW,225,0.0,0.0,99,0.00,CLR,,0.00,WeatherDisplay:10.37,2013-06-08 06:57:00,
2013-06-08 03:02:00,66.4,66.1,29.89,SW,225,0.0,0.0,99,0.00,CLR,,0.00,WeatherDisplay:10.37,2013-06-08 07:02:00,
2013-06-08 03:07:00,66.6,66.3,29.89,SW,225,0.0,0.0,99,0.00,CLR,,0.00,WeatherDisplay:10.37,2013-06-08 07:07:00,
2013-06-08 03:12:00,66.6,66.3,29.89,North,0,0.0,0.0,99,0.00,CLR,,0.00,WeatherDisplay:10.37,2013-06-08 07:12:00,
2013-06-08 03:17:00,66.6,66.3,29.89,West,270,0.0,0.0,99,0.00,CLR,,0.00,WeatherDisplay:10.37,2013-06-08 07:17:00,
2013-06-08 03:22:00,66.6,66.3,29.89,SW,225,0.0,0.0,99,0.00,CLR,,0.00,WeatherDisplay:10.37,2013-06-08 07:22:00,
2013-06-08 03:27:00,66.6,66.3,29.90,SW,225,2.3,2.3,99,0.00,CLR,,0.00,WeatherDisplay:10.37,2013-06-08 07:27:00,
2013-06-08 03:32:00,66.6,66.3,29.89,West,270,1.1,0.0,99,0.00,CLR,,0.00,WeatherDisplay:10.37,2013-06-08 07:32:00,
2013-06-08 03:37:00,66.6,66.3,29.90,West,270,1.1,0.0,99,0.00,CLR,,0.00,WeatherDisplay:10.37,2013-06-08 07:37:00,
2013-06-08 03:42:00,66.6,66.3,29.90,SW,225,2.3,0.0,99,0.00,CLR,,0.00,WeatherDisplay:10.37,2013-06-08 07:42:00,
2013-06-08 03:47:00,66.6,66.3,29.90,South,180,2.3,0.0,99,0.00,CLR,,0.00,WeatherDisplay:10.37,2013-06-08 07:47:00,
2013-06-08 03:52:00,66.6,66.3,29.90,South,180,4.6,4.6,99,0.00,CLR,,0.00,WeatherDisplay:10.37,2013-06-08 07:52:00,
2013-06-08 03:57:00,66.6,66.3,29.90,SW,225,2.3,0.0,99,0.00,CLR,,0.00,WeatherDisplay:10.37,2013-06-08 07:57:00,
2013-06-08 04:02:00,66.6,66.3,29.91,West,270,1.1,0.0,99,0.00,CLR,,0.00,WeatherDisplay:10.37,2013-06-08 08:02:00,
2013-06-08 04:07:00,66.6,66.3,29.90,SE,135,1.1,0.0,99,0.00,CLR,,0.00,WeatherDisplay:10.37,2013-06-08 08:07:00,
2013-06-08 04:12:00,66.6,66.3,29.91,SE,135,0.0,0.0,99,0.00,CLR,,0.00,WeatherDisplay:10.37,2013-06-08 08:12:00,
2013-06-08 04:17:00,66.6,66.3,29.91,SW,225,1.1,0.0,99,0.00,CLR,,0.00,WeatherDisplay:10.37,2013-06-08 08:17:00,
2013-06-08 04:22:00,66.6,66.3,29.90,West,270,0.0,0.0,99,0.00,CLR,,0.00,WeatherDisplay:10.37,2013-06-08 08:22:00,
2013-06-08 04:27:00,66.6,66.3,29.91,SW,225,0.0,0.0,99,0.00,CLR,,0.00,WeatherDisplay:10.37,2013-06-08 08:27:00,
2013-06-08 04:32:00,66.6,66.3,29.91,SW,225,2.3,2.3,99,0.00,CLR,,0.00,WeatherDisplay:10.37,2013-06-08 08:32:00,
2013-06-08 04:37:00,66.6,66.3,29.91,SW,225,2.3,0.0,99,0.00,CLR,,0.00,WeatherDisplay:10.37,2013-06-08 08:37:00,
2013-06-08 04:42:00,66.4,66.1,29.91,SW,225,1.1,0.0,99,0.00,CLR,,0.00,WeatherDisplay:10.37,2013-06-08 08:42:00,
2013-06-08 04:47:00,66.4,66.1,29.91,SW,225,0.0,0.0,99,0.00,CLR,,0.00,WeatherDisplay:10.37,2013-06-08 08:47:00,
2013-06-08 04:52:00,66.6,66.3,29.91,SW,225,2.3,2.3,99,0.00,CLR,,0.00,WeatherDisplay:10.37,2013-06-08 08:52:00,
2013-06-08 04:57:00,66.4,66.1,29.91,West,270,2.3,0.0,99,0.00,CLR,,0.00,WeatherDisplay:10.37,2013-06-08 08:57:00,
2013-06-08 05:02:00,66.4,66.1,29.92,West,270,0.0,0.0,99,0.00,CLR,,0.00,WeatherDisplay:10.37,2013-06-08 09:02:00,
2013-06-08 05:07:00,66.6,66.3,29.92,North,0,0.0,0.0,99,0.00,CLR,,0.00,WeatherDisplay:10.37,2013-06-08 09:07:00,
2013-06-08 05:12:00,66.6,66.3,29.92,SW,225,0.0,0.0,99,0.00,CLR,,0.00,WeatherDisplay:10.37,2013-06-08 09:12:00,
2013-06-08 05:17:00,66.6,66.3,29.92,SW,225,0.0,0.0,99,0.00,CLR,,0.00,WeatherDisplay:10.37,2013-06-08 09:17:00,
2013-06-08 05:22:00,66.6,66.3,29.93,SW,225,1.1,0.0,99,0.00,CLR,,0.00,WeatherDisplay:10.37,2013-06-08 09:22:00,
2013-06-08 05:27:00,66.6,66.3,29.93,NE,45,1.1,0.0,99,0.00,CLR,,0.00,WeatherDisplay:10.37,2013-06-08 09:27:00,
2013-06-08 05:32:00,66.6,66.3,29.93,West,270,1.1,0.0,99,0.00,CLR,,0.00,WeatherDisplay:10.37,2013-06-08 09:32:00,
2013-06-08 05:37:00,66.6,66.3,29.93,West,270,0.0,0.0,99,0.00,CLR,,0.00,WeatherDisplay:10.37,2013-06-08 09:37:00,
2013-06-08 05:42:00,66.4,66.1,29.93,SW,225,0.0,0.0,99,0.00,CLR,,0.00,WeatherDisplay:10.37,2013-06-08 09:42:00,
2013-06-08 05:47:00,66.4,66.1,29.93,SW,225,0.0,0.0,99,0.00,CLR,,0.00,WeatherDisplay:10.37,2013-06-08 09:47:00,
2013-06-08 05:52:00,66.4,66.1,29.93,West,270,0.0,0.0,99,0.00,CLR,,0.00,WeatherDisplay:10.37,2013-06-08 09:52:00,
2013-06-08 05:57:00,66.4,66.1,29.93,West,270,0.0,0.0,99,0.00,CLR,,0.00,WeatherDisplay:10.37,2013-06-08 09:57:00,
2013-06-08 06:02:00,66.4,66.1,29.93,SW,225,2.3,0.0,99,0.00,CLR,,0.00,WeatherDisplay:10.37,2013-06-08 10:02:00,
2013-06-08 06:07:00,66.6,66.3,29.93,SW,225,0.0,0.0,99,0.00,CLR,,0.00,WeatherDisplay:10.37,2013-06-08 10:07:00,
2013-06-08 06:12:00,66.6,66.3,29.93,North,0,0.0,0.0,99,0.00,CLR,,0.00,WeatherDisplay:10.37,2013-06-08 10:12:00,
2013-06-08 06:17:00,66.6,66.3,29.93,North,0,0.0,0.0,99,0.00,CLR,,0.00,WeatherDisplay:10.37,2013-06-08 10:17:00,
2013-06-08 06:22:00,66.6,66.3,29.94,West,270,0.0,0.0,99,0.00,CLR,,0.00,WeatherDisplay:10.37,2013-06-08 10:22:00,
2013-06-08 06:27:00,66.6,66.3,29.94,North,0,0.0,0.0,99,0.00,CLR,,0.00,WeatherDisplay:10.37,2013-06-08 10:27:00,
2013-06-08 06:32:00,66.6,66.3,29.94,West,270,0.0,0.0,99,0.00,CLR,,0.00,WeatherDisplay:10.37,2013-06-08 10:32:00,
2013-06-08 06:37:00,66.6,66.3,29.94,NW,315,0.0,0.0,99,0.00,CLR,,0.00,WeatherDisplay:10.37,2013-06-08 10:37:00,
2013-06-08 06:42:00,66.6,66.3,29.95,NW,315,0.0,0.0,99,0.00,CLR,,0.00,WeatherDisplay:10.37,2013-06-08 10:42:00,
2013-06-08 06:47:00,66.6,66.3,29.95,NW,315,0.0,0.0,99,0.00,CLR,,0.00,WeatherDisplay:10.37,2013-06-08 10:47:00,
2013-06-08 06:52:00,66.6,66.3,29.95,West,270,0.0,0.0,99,0.00,CLR,,0.00,WeatherDisplay:10.37,2013-06-08 10:52:00,
2013-06-08 06:57:00,66.6,66.3,29.96,NW,315,0.0,0.0,99,0.00,CLR,,0.00,WeatherDisplay:10.37,2013-06-08 10:57:00,
2013-06-08 07:02:00,66.6,66.3,29.96,NW,315,0.0,0.0,99,0.00,CLR,,0.00,WeatherDisplay:10.37,2013-06-08 11:02:00,
2013-06-08 07:07:00,66.6,66.3,29.96,SW,225,0.0,0.0,99,0.00,CLR,,0.00,WeatherDisplay:10.37,2013-06-08 11:07:00,
2013-06-08 07:12:00,66.6,66.3,29.96,North,0,0.0,0.0,99,0.00,CLR,,0.00,WeatherDisplay:10.37,2013-06-08 11:12:00,
2013-06-08 07:17:00,66.6,66.3,29.96,North,0,0.0,0.0,99,0.00,CLR,,0.00,WeatherDisplay:10.37,2013-06-08 11:17:00,
2013-06-08 07:22:00,66.6,66.3,29.96,North,0,0.0,0.0,99,0.00,CLR,,0.00,WeatherDisplay:10.37,2013-06-08 11:22:00,
2013-06-08 07:27:00,66.6,66.3,29.97,West,270,0.0,0.0,99,0.00,CLR,,0.00,WeatherDisplay:10.37,2013-06-08 11:27:00,
2013-06-08 07:32:00,66.6,66.3,29.97,West,270,0.0,0.0,99,0.00,CLR,,0.00,WeatherDisplay:10.37,2013-06-08 11:32:00,
2013-06-08 07:37:00,66.6,66.3,29.98,West,270,0.0,0.0,99,0.00,CLR,,0.00,WeatherDisplay:10.37,2013-06-08 11:37:00,
2013-06-08 07:42:00,66.6,66.3,29.97,North,0,0.0,0.0,99,0.00,CLR,,0.00,WeatherDisplay:10.37,2013-06-08 11:42:00,
2013-06-08 07:48:00,66.6,66.3,29.98,West,270,2.3,0.0,99,0.00,CLR,,0.00,WeatherDisplay:10.37,2013-06-08 11:48:00,
2013-06-08 07:52:00,66.6,66.3,29.98,West,270,0.0,0.0,99,0.00,CLR,,0.00,WeatherDisplay:10.37,2013-06-08 11:52:00,
2013-06-08 07:57:00,66.6,66.3,29.98,North,0,0.0,0.0,99,0.00,CLR,,0.00,WeatherDisplay:10.37,2013-06-08 11:57:00,
2013-06-08 08:02:00,66.6,66.3,29.98,West,270,0.0,0.0,99,0.00,CLR,,0.00,WeatherDisplay:10.37,2013-06-08 12:02:00,
2013-06-08 08:07:00,66.6,66.3,29.98,West,270,0.0,0.0,99,0.00,CLR,,0.00,WeatherDisplay:10.37,2013-06-08 12:07:00,
2013-06-08 08:12:00,66.6,66.3,29.98,East,90,0.0,0.0,99,0.00,CLR,,0.00,WeatherDisplay:10.37,2013-06-08 12:12:00,
2013-06-08 08:17:00,66.7,66.5,29.98,SW,225,0.0,0.0,99,0.00,CLR,,0.00,WeatherDisplay:10.37,2013-06-08 12:17:00,
2013-06-08 08:23:00,66.7,66.5,29.98,SW,225,1.1,0.0,99,0.00,CLR,,0.00,WeatherDisplay:10.37,2013-06-08 12:23:00,
2013-06-08 08:28:00,66.7,66.5,29.99,SW,225,4.6,4.6,99,0.00,CLR,,0.00,WeatherDisplay:10.37,2013-06-08 12:28:00,
2013-06-08 08:33:00,66.9,66.6,29.99,SW,225,1.1,1.3,99,0.00,CLR,,0.00,WeatherDisplay:10.37,2013-06-08 12:33:00,
2013-06-08 08:38:00,66.9,66.6,29.99,South,180,1.1,0.0,99,0.00,CLR,,0.00,WeatherDisplay:10.37,2013-06-08 12:38:00,
2013-06-08 08:43:00,67.1,66.8,29.99,West,270,4.6,0.0,99,0.00,CLR,,0.00,WeatherDisplay:10.37,2013-06-08 12:43:00,
2013-06-08 08:48:00,67.1,66.8,29.99,NW,315,0.0,0.0,99,0.00,CLR,,0.00,WeatherDisplay:10.37,2013-06-08 12:48:00,
2013-06-08 08:53:00,67.5,67.2,29.99,SW,225,2.3,2.3,99,0.00,CLR,,0.00,WeatherDisplay:10.37,2013-06-08 12:53:00,
2013-06-08 08:58:00,67.6,67.3,29.99,West,270,1.1,0.0,99,0.00,CLR,,0.00,WeatherDisplay:10.37,2013-06-08 12:58:00,
2013-06-08 09:03:00,68.0,67.7,30.00,West,270,4.6,0.0,99,0.00,CLR,,0.00,WeatherDisplay:10.37,2013-06-08 13:03:00,
2013-06-08 09:08:00,68.2,67.9,30.00,West,270,4.6,4.6,99,0.00,CLR,,0.00,WeatherDisplay:10.37,2013-06-08 13:08:00,
2013-06-08 09:13:00,68.2,67.9,30.00,SW,225,2.3,0.0,99,0.00,CLR,,0.00,WeatherDisplay:10.37,2013-06-08 13:13:00,
2013-06-08 09:18:00,68.4,68.1,30.00,SSW,202,4.6,4.6,99,0.00,CLR,,0.00,WeatherDisplay:10.37,2013-06-08 13:18:00,
2013-06-08 09:23:00,68.5,68.2,30.00,South,180,8.1,8.1,99,0.00,CLR,,0.00,WeatherDisplay:10.37,2013-06-08 13:23:00,
2013-06-08 09:28:00,68.7,68.4,30.00,South,180,6.9,6.9,99,0.00,CLR,,0.00,WeatherDisplay:10.37,2013-06-08 13:28:00,
2013-06-08 09:33:00,68.9,68.6,30.00,West,270,4.6,4.6,99,0.00,CLR,,0.00,WeatherDisplay:10.37,2013-06-08 13:33:00,
2013-06-08 09:38:00,69.1,68.8,30.01,SW,225,4.6,4.6,99,0.00,CLR,,0.00,WeatherDisplay:10.37,2013-06-08 13:38:00,
2013-06-08 09:43:00,69.4,69.1,30.01,SW,225,5.8,5.8,99,0.00,CLR,,0.00,WeatherDisplay:10.37,2013-06-08 13:43:00,
2013-06-08 09:48:00,70.0,69.4,30.01,South,180,2.3,2.7,98,0.00,CLR,,0.00,WeatherDisplay:10.37,2013-06-08 13:48:00,
2013-06-08 09:53:00,70.2,69.6,30.01,South,180,4.6,4.6,98,0.00,CLR,,0.00,WeatherDisplay:10.37,2013-06-08 13:53:00,
2013-06-08 09:58:00,70.2,69.6,30.01,West,270,1.1,1.3,98,0.00,CLR,,0.00,WeatherDisplay:10.37,2013-06-08 13:58:00,
2013-06-08 10:03:00,70.3,69.7,30.01,West,270,4.6,0.0,98,0.00,CLR,,0.00,WeatherDisplay:10.37,2013-06-08 14:03:00,
2013-06-08 10:08:00,70.7,70.1,30.01,West,270,0.0,0.0,98,0.00,CLR,,0.00,WeatherDisplay:10.37,2013-06-08 14:08:00,
2013-06-08 10:13:00,71.1,70.5,30.02,SSE,158,5.8,5.8,98,0.00,CLR,,0.00,WeatherDisplay:10.37,2013-06-08 14:13:00,
2013-06-08 10:18:00,71.1,70.5,30.02,SW,225,5.8,5.8,98,0.00,CLR,,0.00,WeatherDisplay:10.37,2013-06-08 14:18:00,
2013-06-08 10:23:00,71.1,70.5,30.02,SW,225,2.3,0.0,98,0.00,CLR,,0.00,WeatherDisplay:10.37,2013-06-08 14:23:00,
2013-06-08 10:28:00,71.6,70.7,30.02,South,180,5.8,7.0,97,0.00,CLR,,0.00,WeatherDisplay:10.37,2013-06-08 14:28:00,
2013-06-08 10:33:00,71.6,70.1,30.02,South,180,5.8,5.8,95,0.00,CLR,,0.00,WeatherDisplay:10.37,2013-06-08 14:33:00,
2013-06-08 10:38:00,71.6,69.8,30.03,West,270,4.6,4.6,94,0.00,CLR,,0.00,WeatherDisplay:10.37,2013-06-08 14:38:00,
2013-06-08 10:43:00,71.6,69.5,30.03,SW,225,8.1,8.1,93,0.00,CLR,,0.00,WeatherDisplay:10.37,2013-06-08 14:43:00,
2013-06-08 10:48:00,71.8,69.6,30.03,SW,225,10.4,10.4,93,0.00,CLR,,0.00,WeatherDisplay:10.37,2013-06-08 14:48:00,
2013-06-08 10:53:00,71.8,69.3,30.03,SE,135,8.1,8.1,92,0.00,CLR,,0.00,WeatherDisplay:10.37,2013-06-08 14:53:00,
2013-06-08 10:58:00,71.8,69.3,30.03,SW,225,5.8,5.8,92,0.00,CLR,,0.00,WeatherDisplay:10.37,2013-06-08 14:58:00,
2013-06-08 11:03:00,71.6,68.8,30.03,South,180,8.1,8.1,91,0.00,CLR,,0.00,WeatherDisplay:10.37,2013-06-08 15:03:00,
2013-06-08 11:08:00,71.8,69.3,30.03,South,180,6.9,6.9,92,0.00,CLR,,0.00,WeatherDisplay:10.37,2013-06-08 15:08:00,
2013-06-08 11:13:00,72.7,70.2,30.03,South,180,1.1,4.4,92,0.00,CLR,,0.00,WeatherDisplay:10.37,2013-06-08 15:13:00,
2013-06-08 11:18:00,73.4,70.3,30.03,West,270,6.9,6.9,90,0.00,CLR,,0.00,WeatherDisplay:10.37,2013-06-08 15:18:00,
2013-06-08 11:23:00,73.9,70.8,30.03,SW,225,4.6,4.6,90,0.00,CLR,,0.00,WeatherDisplay:10.37,2013-06-08 15:23:00,
2013-06-08 11:28:00,73.6,69.8,30.03,SW,225,6.9,6.9,88,0.00,CLR,,0.00,WeatherDisplay:10.37,2013-06-08 15:28:00,
2013-06-08 11:33:00,73.6,69.8,30.03,South,180,5.8,5.8,88,0.00,CLR,,0.00,WeatherDisplay:10.37,2013-06-08 15:33:00,
2013-06-08 11:38:00,74.3,70.5,30.03,NW,315,4.6,4.6,88,0.00,CLR,,0.00,WeatherDisplay:10.37,2013-06-08 15:38:00,
2013-06-08 11:43:00,75.0,70.9,30.03,South,180,11.5,11.5,87,0.00,CLR,,0.00,WeatherDisplay:10.37,2013-06-08 15:43:00,
2013-06-08 11:48:00,75.0,70.9,30.03,SW,225,5.8,5.8,87,0.00,CLR,,0.00,WeatherDisplay:10.37,2013-06-08 15:48:00,
2013-06-08 11:53:00,75.6,71.1,30.03,West,270,5.8,5.8,86,0.00,CLR,,0.00,WeatherDisplay:10.37,2013-06-08 15:53:00,
2013-06-08 11:58:00,76.8,72.0,30.03,SW,225,8.1,8.1,85,0.00,CLR,,0.00,WeatherDisplay:10.37,2013-06-08 15:58:00,
2013-06-08 12:03:00,77.2,71.3,30.03,SW,225,5.8,5.8,82,0.00,CLR,,0.00,WeatherDisplay:10.37,2013-06-08 16:03:00,
2013-06-08 12:08:00,77.5,72.0,30.03,South,180,5.8,8.4,83,0.00,CLR,,0.00,WeatherDisplay:10.37,2013-06-08 16:08:00,
2013-06-08 12:13:00,77.4,71.1,30.03,SW,225,6.9,6.9,81,0.00,CLR,,0.00,WeatherDisplay:10.37,2013-06-08 16:13:00,
2013-06-08 12:18:00,77.7,72.1,30.03,SE,135,6.9,6.9,83,0.00,CLR,,0.00,WeatherDisplay:10.37,2013-06-08 16:18:00,
2013-06-08 12:23:00,77.7,71.4,30.04,SE,135,5.8,5.8,81,0.00,CLR,,0.00,WeatherDisplay:10.37,2013-06-08 16:23:00,
2013-06-08 12:28:00,78.8,72.1,30.04,SSW,202,5.8,5.8,80,0.00,CLR,,0.00,WeatherDisplay:10.37,2013-06-08 16:28:00,
2013-06-08 12:33:00,79.2,71.3,30.04,SW,225,13.8,13.8,77,0.00,CLR,,0.00,WeatherDisplay:10.37,2013-06-08 16:33:00,
2013-06-08 12:38:00,79.2,70.5,30.03,West,270,5.8,5.8,75,0.00,CLR,,0.00,WeatherDisplay:10.37,2013-06-08 16:38:00,
2013-06-08 12:43:00,79.3,70.3,30.04,West,270,6.9,6.9,74,0.00,CLR,,0.00,WeatherDisplay:10.37,2013-06-08 16:43:00,
2013-06-08 12:48:00,78.3,69.7,30.04,South,180,12.7,12.7,75,0.00,CLR,,0.00,WeatherDisplay:10.37,2013-06-08 16:48:00,
2013-06-08 12:53:00,78.3,71.2,30.03,North,0,4.6,0.0,79,0.00,CLR,,0.00,WeatherDisplay:10.37,2013-06-08 16:53:00,
2013-06-08 12:58:00,79.0,71.2,30.03,West,270,11.5,11.5,77,0.00,CLR,,0.00,WeatherDisplay:10.37,2013-06-08 16:58:00,
2013-06-08 13:03:00,79.2,71.3,30.03,South,180,4.6,4.6,77,0.00,CLR,,0.00,WeatherDisplay:10.37,2013-06-08 17:03:00,
2013-06-08 13:08:00,79.2,70.9,30.03,South,180,10.4,10.4,76,0.00,CLR,,0.00,WeatherDisplay:10.37,2013-06-08 17:08:00,
2013-06-08 13:13:00,79.3,70.7,30.03,South,180,6.9,6.9,75,0.00,CLR,,0.00,WeatherDisplay:10.37,2013-06-08 17:13:00,
2013-06-08 13:18:00,79.3,70.3,30.03,South,180,6.9,6.9,74,0.00,CLR,,0.00,WeatherDisplay:10.37,2013-06-08 17:18:00,
2013-06-08 13:23:00,79.9,71.2,30.03,SW,225,4.6,4.6,75,0.00,CLR,,0.00,WeatherDisplay:10.37,2013-06-08 17:23:00,
2013-06-08 13:28:00,79.3,70.3,30.02,SW,225,6.9,6.9,74,0.00,CLR,,0.00,WeatherDisplay:10.37,2013-06-08 17:28:00,
2013-06-08 13:33:00,78.8,70.2,30.02,South,180,2.3,2.7,75,0.00,CLR,,0.00,WeatherDisplay:10.37,2013-06-08 17:33:00,
2013-06-08 13:38:00,78.6,70.8,30.03,West,270,1.1,0.0,77,0.00,CLR,,0.00,WeatherDisplay:10.37,2013-06-08 17:38:00,
2013-06-08 13:43:00,79.7,71.8,30.02,South,180,5.8,5.8,77,0.00,CLR,,0.00,WeatherDisplay:10.37,2013-06-08 17:43:00,
2013-06-08 13:48:00,80.6,71.9,30.02,South,180,6.9,6.9,75,0.00,CLR,,0.00,WeatherDisplay:10.37,2013-06-08 17:48:00,
2013-06-08 13:53:00,81.5,72.4,30.02,SW,225,5.8,0.0,74,0.00,CLR,,0.00,WeatherDisplay:10.37,2013-06-08 17:53:00,
2013-06-08 13:58:00,81.9,71.9,30.02,South,180,2.3,5.7,72,0.00,CLR,,0.00,WeatherDisplay:10.37,2013-06-08 17:58:00,
2013-06-08 14:03:00,81.9,71.9,30.01,South,180,8.1,8.1,72,0.00,CLR,,0.00,WeatherDisplay:10.37,2013-06-08 18:03:00,
2013-06-08 14:08:00,81.9,71.5,30.01,SW,225,6.9,6.9,71,0.00,CLR,,0.00,WeatherDisplay:10.37,2013-06-08 18:08:00,
2013-06-08 14:13:00,82.0,71.3,30.01,South,180,8.1,8.1,70,0.00,CLR,,0.00,WeatherDisplay:10.37,2013-06-08 18:13:00,
2013-06-08 14:18:00,82.4,70.8,30.02,South,180,6.9,6.9,68,0.00,CLR,,0.00,WeatherDisplay:10.37,2013-06-08 18:18:00,
2013-06-08 14:23:00,82.4,71.6,30.01,SW,225,5.7,5.7,70,0.00,CLR,,0.00,WeatherDisplay:10.37,2013-06-08 18:23:00,
2013-06-08 14:28:00,82.4,70.8,30.01,South,180,5.8,5.8,68,0.00,CLR,,0.00,WeatherDisplay:10.37,2013-06-08 18:28:00,
2013-06-08 14:33:00,82.4,70.3,30.00,NW,315,11.5,11.5,67,0.00,CLR,,0.00,WeatherDisplay:10.37,2013-06-08 18:33:00,
2013-06-08 14:38:00,82.6,70.9,30.00,WSW,248,5.8,5.8,68,0.00,CLR,,0.00,WeatherDisplay:10.37,2013-06-08 18:38:00,
2013-06-08 14:43:00,82.8,71.1,30.01,SE,135,8.1,8.1,68,0.00,CLR,,0.00,WeatherDisplay:10.37,2013-06-08 18:43:00,
2013-06-08 14:48:00,82.8,70.7,30.00,WSW,248,6.9,6.9,67,0.00,CLR,,0.00,WeatherDisplay:10.37,2013-06-08 18:48:00,
2013-06-08 14:53:00,83.3,72.1,30.00,South,180,5.8,5.8,69,0.00,CLR,,0.00,WeatherDisplay:10.37,2013-06-08 18:53:00,
2013-06-08 14:58:00,83.5,70.5,30.00,SW,225,12.7,12.7,65,0.00,CLR,,0.00,WeatherDisplay:10.37,2013-06-08 18:58:00,
2013-06-08 15:03:00,83.1,71.0,30.01,SW,225,4.6,4.6,67,0.00,CLR,,0.00,WeatherDisplay:10.37,2013-06-08 19:03:00,
2013-06-08 15:08:00,82.9,70.0,30.00,SE,135,10.4,10.4,65,0.00,CLR,,0.00,WeatherDisplay:10.37,2013-06-08 19:08:00,
2013-06-08 15:13:00,82.6,69.6,30.00,SE,135,8.1,8.1,65,0.00,CLR,,0.00,WeatherDisplay:10.37,2013-06-08 19:13:00,
2013-06-08 15:18:00,82.8,69.8,30.00,SW,225,10.4,10.4,65,0.00,CLR,,0.00,WeatherDisplay:10.37,2013-06-08 19:18:00,
2013-06-08 15:23:00,83.3,70.8,30.00,South,180,6.9,6.9,66,0.00,CLR,,0.00,WeatherDisplay:10.37,2013-06-08 19:23:00,
2013-06-08 15:28:00,82.6,70.1,30.00,South,180,5.8,5.8,66,0.00,CLR,,0.00,WeatherDisplay:10.37,2013-06-08 19:28:00,
2013-06-08 15:33:00,81.3,68.9,30.00,South,180,5.8,5.8,66,0.00,CLR,,0.00,WeatherDisplay:10.37,2013-06-08 19:33:00,
2013-06-08 15:38:00,80.6,69.1,30.00,South,180,16.1,16.1,68,0.00,CLR,,0.00,WeatherDisplay:10.37,2013-06-08 19:38:00,
2013-06-08 15:43:00,80.6,69.9,30.00,South,180,10.4,10.4,70,0.00,CLR,,0.00,WeatherDisplay:10.37,2013-06-08 19:43:00,
2013-06-08 15:48:00,81.9,70.7,30.00,SE,135,4.6,4.6,69,0.00,CLR,,0.00,WeatherDisplay:10.37,2013-06-08 19:48:00,
2013-06-08 15:53:00,82.4,70.3,30.00,SW,225,6.9,6.9,67,0.00,CLR,,0.00,WeatherDisplay:10.37,2013-06-08 19:53:00,
2013-06-08 15:58:00,81.5,69.5,30.00,NE,45,2.3,0.0,67,0.00,CLR,,0.00,WeatherDisplay:10.37,2013-06-08 19:58:00,
2013-06-08 16:03:00,80.8,68.8,30.00,SE,135,6.9,6.9,67,0.00,CLR,,0.00,WeatherDisplay:10.37,2013-06-08 20:03:00,
2013-06-08 16:08:00,80.4,71.0,30.00,North,0,5.8,5.8,73,0.00,CLR,,0.00,WeatherDisplay:10.37,2013-06-08 20:08:00,
2013-06-08 16:13:00,80.8,69.2,30.00,SW,225,8.1,8.1,68,0.00,CLR,,0.00,WeatherDisplay:10.37,2013-06-08 20:13:00,
2013-06-08 16:18:00,80.8,69.7,30.00,East,90,5.8,5.8,69,0.00,CLR,,0.00,WeatherDisplay:10.37,2013-06-08 20:18:00,
2013-06-08 16:23:00,80.6,70.3,30.00,South,180,5.8,5.8,71,0.00,CLR,,0.00,WeatherDisplay:10.37,2013-06-08 20:23:00,
2013-06-08 16:28:00,80.6,70.7,30.00,West,270,2.3,2.3,72,0.00,CLR,,0.00,WeatherDisplay:10.37,2013-06-08 20:28:00,
2013-06-08 16:33:00,81.1,71.7,30.00,NW,315,2.3,2.3,73,0.00,CLR,,0.00,WeatherDisplay:10.37,2013-06-08 20:33:00,
2013-06-08 16:38:00,81.9,72.8,30.00,North,0,2.3,0.0,74,0.00,CLR,,0.00,WeatherDisplay:10.37,2013-06-08 20:38:00,
2013-06-08 16:43:00,81.9,70.7,30.00,SE,135,6.9,6.9,69,0.00,CLR,,0.00,WeatherDisplay:10.37,2013-06-08 20:43:00,
2013-06-08 16:48:00,81.9,70.3,30.00,East,90,10.4,10.4,68,0.00,CLR,,0.00,WeatherDisplay:10.37,2013-06-08 20:48:00,
2013-06-08 16:53:00,82.0,71.7,30.00,SW,225,2.3,2.7,71,0.00,CLR,,0.00,WeatherDisplay:10.37,2013-06-08 20:53:00,
2013-06-08 16:58:00,81.5,71.2,30.00,NW,315,2.3,0.0,71,0.00,CLR,,0.00,WeatherDisplay:10.37,2013-06-08 20:58:00,
2013-06-08 17:03:00,81.5,71.2,30.00,NW,315,2.3,0.0,71,0.00,CLR,,0.00,WeatherDisplay:10.37,2013-06-08 21:03:00,
2013-06-08 17:08:00,81.0,70.7,30.00,South,180,5.8,0.0,71,0.00,CLR,,0.00,WeatherDisplay:10.37,2013-06-08 21:08:00,
2013-06-08 17:13:00,80.6,70.3,30.00,NW,315,2.3,0.0,71,0.00,CLR,,0.00,WeatherDisplay:10.37,2013-06-08 21:13:00,
2013-06-08 17:18:00,80.2,71.6,30.00,East,90,1.1,1.3,75,0.00,CLR,,0.00,WeatherDisplay:10.37,2013-06-08 21:18:00,
2013-06-08 17:23:00,79.2,70.5,30.00,South,180,1.1,0.0,75,0.00,CLR,,0.00,WeatherDisplay:10.37,2013-06-08 21:23:00,
2013-06-08 17:28:00,78.6,70.8,30.00,NW,315,0.0,0.0,77,0.00,CLR,,0.00,WeatherDisplay:10.37,2013-06-08 21:28:00,
2013-06-08 17:33:00,78.3,71.2,30.00,NW,315,0.0,0.0,79,0.00,CLR,,0.00,WeatherDisplay:10.37,2013-06-08 21:33:00,
2013-06-08 17:38:00,78.1,71.4,30.00,North,0,0.0,0.0,80,0.00,CLR,,0.00,WeatherDisplay:10.37,2013-06-08 21:38:00,
2013-06-08 17:43:00,78.4,72.5,30.00,North,0,2.3,0.0,82,0.00,CLR,,0.00,WeatherDisplay:10.37,2013-06-08 21:43:00,
2013-06-08 17:48:00,79.0,72.3,30.00,East,90,2.3,2.7,80,0.00,CLR,,0.00,WeatherDisplay:10.37,2013-06-08 21:48:00,
2013-06-08 17:53:00,79.9,72.4,30.00,NE,45,4.6,4.6,78,0.00,CLR,,0.00,WeatherDisplay:10.37,2013-06-08 21:53:00,
2013-06-08 17:58:00,80.1,72.6,30.00,NE,45,2.3,2.3,78,0.00,CLR,,0.00,WeatherDisplay:10.37,2013-06-08 21:58:00,
2013-06-08 18:03:00,79.9,72.4,30.00,South,180,5.8,5.8,78,0.00,CLR,,0.00,WeatherDisplay:10.37,2013-06-08 22:03:00,
2013-06-08 18:08:00,79.5,70.9,30.00,South,180,6.9,7.0,75,0.00,CLR,,0.00,WeatherDisplay:10.37,2013-06-08 22:08:00,
2013-06-08 18:13:00,79.3,70.7,30.00,South,180,4.6,4.6,75,0.00,CLR,,0.00,WeatherDisplay:10.37,2013-06-08 22:13:00,
2013-06-08 18:18:00,79.5,70.9,30.00,SE,135,11.5,11.5,75,0.00,CLR,,0.00,WeatherDisplay:10.37,2013-06-08 22:18:00,
2013-06-08 18:23:00,79.5,70.5,30.00,SW,225,11.5,11.5,74,0.00,CLR,,0.00,WeatherDisplay:10.37,2013-06-08 22:23:00,
2013-06-08 18:28:00,79.5,70.1,30.00,SW,225,8.1,8.1,73,0.00,CLR,,0.00,WeatherDisplay:10.37,2013-06-08 22:28:00,
2013-06-08 18:33:00,79.3,70.7,30.00,East,90,4.6,4.6,75,0.00,CLR,,0.00,WeatherDisplay:10.37,2013-06-08 22:33:00,
2013-06-08 18:38:00,79.2,70.5,30.00,South,180,5.8,5.8,75,0.00,CLR,,0.00,WeatherDisplay:10.37,2013-06-08 22:38:00,
2013-06-08 18:43:00,79.0,70.4,30.00,SE,135,11.5,11.5,75,0.00,CLR,,0.00,WeatherDisplay:10.37,2013-06-08 22:43:00,
2013-06-08 18:48:00,78.8,70.2,30.00,South,180,8.1,8.1,75,0.00,CLR,,0.00,WeatherDisplay:10.37,2013-06-08 22:48:00,
2013-06-08 18:53:00,78.6,70.4,30.00,SW,225,6.9,6.9,76,0.00,CLR,,0.00,WeatherDisplay:10.37,2013-06-08 22:53:00,
2013-06-08 18:58:00,78.4,70.6,30.00,South,180,5.8,5.8,77,0.00,CLR,,0.00,WeatherDisplay:10.37,2013-06-08 22:58:00,
2013-06-08 19:03:00,78.3,70.5,30.00,South,180,5.8,5.8,77,0.00,CLR,,0.00,WeatherDisplay:10.37,2013-06-08 23:03:00,
2013-06-08 19:08:00,78.1,71.0,30.00,North,0,0.0,0.0,79,0.00,CLR,,0.00,WeatherDisplay:10.37,2013-06-08 23:08:00,
2013-06-08 19:13:00,77.5,71.2,30.01,North,0,0.0,0.0,81,0.00,CLR,,0.00,WeatherDisplay:10.37,2013-06-08 23:13:00,
2013-06-08 19:18:00,77.0,71.1,30.00,North,0,0.0,0.0,82,0.00,CLR,,0.00,WeatherDisplay:10.37,2013-06-08 23:18:00,
2013-06-08 19:23:00,76.5,71.3,30.01,North,0,0.0,1.3,84,0.00,CLR,,0.00,WeatherDisplay:10.37,2013-06-08 23:23:00,
2013-06-08 19:28:00,76.1,71.3,30.01,North,0,0.0,0.0,85,0.00,CLR,,0.00,WeatherDisplay:10.37,2013-06-08 23:28:00,
2013-06-08 19:33:00,75.7,70.9,30.02,North,0,0.0,0.0,85,0.00,CLR,,0.00,WeatherDisplay:10.37,2013-06-08 23:33:00,
2013-06-08 19:38:00,75.4,70.9,30.02,North,0,0.0,0.0,86,0.00,CLR,,0.00,WeatherDisplay:10.37,2013-06-08 23:38:00,
2013-06-08 19:43:00,75.0,71.2,30.02,North,0,0.0,0.0,88,0.00,CLR,,0.00,WeatherDisplay:10.37,2013-06-08 23:43:00,
2013-06-08 19:48:00,74.8,71.0,30.02,North,0,0.0,0.0,88,0.00,CLR,,0.00,WeatherDisplay:10.37,2013-06-08 23:48:00,
2013-06-08 19:53:00,74.7,71.2,30.02,North,0,0.0,0.0,89,0.00,CLR,,0.00,WeatherDisplay:10.37,2013-06-08 23:53:00,
2013-06-08 19:58:00,74.5,71.4,30.02,North,0,0.0,0.0,90,0.00,CLR,,0.00,WeatherDisplay:10.37,2013-06-08 23:58:00,
2013-06-08 20:03:00,74.5,71.4,30.02,NW,315,0.0,0.0,90,0.00,CLR,,0.00,WeatherDisplay:10.37,2013-06-09 00:03:00,
2013-06-08 20:08:00,74.3,71.5,30.02,NW,315,0.0,0.0,91,0.00,CLR,,0.00,WeatherDisplay:10.37,2013-06-09 00:08:00,
2013-06-08 20:13:00,74.3,71.5,30.02,NW,315,0.0,0.0,91,0.00,CLR,,0.00,WeatherDisplay:10.37,2013-06-09 00:13:00,
2013-06-08 20:18:00,74.1,71.3,30.02,NW,315,0.0,0.0,91,0.00,CLR,,0.00,WeatherDisplay:10.37,2013-06-09 00:18:00,
2013-06-08 20:23:00,74.1,71.6,30.03,NW,315,0.0,0.0,92,0.00,CLR,,0.00,WeatherDisplay:10.37,2013-06-09 00:23:00,
2013-06-08 20:28:00,74.1,71.6,30.03,NW,315,0.0,0.0,92,0.00,CLR,,0.00,WeatherDisplay:10.37,2013-06-09 00:28:00,
2013-06-08 20:33:00,73.8,71.6,30.03,NW,315,0.0,0.0,93,0.00,CLR,,0.00,WeatherDisplay:10.37,2013-06-09 00:33:00,
2013-06-08 20:38:00,73.6,71.4,30.03,NW,315,0.0,0.0,93,0.00,CLR,,0.00,WeatherDisplay:10.37,2013-06-09 00:38:00,
2013-06-08 20:43:00,73.6,71.4,30.03,NW,315,0.0,0.0,93,0.00,CLR,,0.00,WeatherDisplay:10.37,2013-06-09 00:43:00,
2013-06-08 20:48:00,73.4,71.6,30.03,NW,315,0.0,0.0,94,0.00,CLR,,0.00,WeatherDisplay:10.37,2013-06-09 00:48:00,
2013-06-08 20:53:00,73.4,71.6,30.04,NE,45,0.0,0.0,94,0.00,CLR,,0.00,WeatherDisplay:10.37,2013-06-09 00:53:00,
2013-06-08 20:58:00,73.2,71.1,30.03,NE,45,0.0,0.0,93,0.00,CLR,,0.00,WeatherDisplay:10.37,2013-06-09 00:58:00,
2013-06-08 21:03:00,73.0,70.9,30.04,West,270,0.0,0.0,93,0.00,CLR,,0.00,WeatherDisplay:10.37,2013-06-09 01:03:00,
2013-06-08 21:08:00,72.9,70.7,30.04,West,270,0.0,0.0,93,0.00,CLR,,0.00,WeatherDisplay:10.37,2013-06-09 01:08:00,
2013-06-08 21:13:00,72.7,70.5,30.04,North,0,0.0,0.0,93,0.00,CLR,,0.00,WeatherDisplay:10.37,2013-06-09 01:13:00,
2013-06-08 21:18:00,72.5,70.4,30.04,North,0,0.0,0.0,93,0.00,CLR,,0.00,WeatherDisplay:10.37,2013-06-09 01:18:00,
2013-06-08 21:23:00,72.1,70.3,30.04,North,0,0.0,0.0,94,0.00,CLR,,0.00,WeatherDisplay:10.37,2013-06-09 01:23:00,
2013-06-08 21:28:00,72.0,70.1,30.04,North,0,0.0,0.0,94,0.00,CLR,,0.00,WeatherDisplay:10.37,2013-06-09 01:28:00,
2013-06-08 21:33:00,71.8,70.0,30.04,North,0,0.0,0.0,94,0.00,CLR,,0.00,WeatherDisplay:10.37,2013-06-09 01:33:00,
2013-06-08 21:38:00,71.4,69.9,30.05,North,0,0.0,0.0,95,0.00,CLR,,0.00,WeatherDisplay:10.37,2013-06-09 01:38:00,
2013-06-08 21:43:00,71.2,69.7,30.05,North,0,0.0,0.0,95,0.00,CLR,,0.00,WeatherDisplay:10.37,2013-06-09 01:43:00,
2013-06-08 21:48:00,71.1,69.6,30.05,North,0,0.0,0.0,95,0.00,CLR,,0.00,WeatherDisplay:10.37,2013-06-09 01:48:00,
2013-06-08 21:53:00,70.9,69.4,30.05,North,0,0.0,0.0,95,0.00,CLR,,0.00,WeatherDisplay:10.37,2013-06-09 01:53:00,
2013-06-08 21:58:00,70.9,69.4,30.05,North,0,0.0,0.0,95,0.00,CLR,,0.00,WeatherDisplay:10.37,2013-06-09 01:58:00,
2013-06-08 22:03:00,70.7,69.5,30.06,North,0,0.0,0.0,96,0.00,CLR,,0.00,WeatherDisplay:10.37,2013-06-09 02:03:00,
2013-06-08 22:08:00,70.5,69.3,30.06,North,0,0.0,0.0,96,0.00,CLR,,0.00,WeatherDisplay:10.37,2013-06-09 02:08:00,
2013-06-08 22:13:00,70.3,69.1,30.06,North,0,0.0,0.0,96,0.00,CLR,,0.00,WeatherDisplay:10.37,2013-06-09 02:13:00,
2013-06-08 22:18:00,70.2,69.0,30.06,North,0,0.0,0.0,96,0.00,CLR,,0.00,WeatherDisplay:10.37,2013-06-09 02:18:00,
2013-06-08 22:23:00,70.0,68.8,30.06,North,0,0.0,0.0,96,0.00,CLR,,0.00,WeatherDisplay:10.37,2013-06-09 02:23:00,
2013-06-08 22:28:00,70.0,68.8,30.07,North,0,0.0,0.0,96,0.00,CLR,,0.00,WeatherDisplay:10.37,2013-06-09 02:28:00,
2013-06-08 22:33:00,69.8,68.9,30.06,North,0,0.0,0.0,97,0.00,CLR,,0.00,WeatherDisplay:10.37,2013-06-09 02:33:00,
2013-06-08 22:38:00,69.8,68.9,30.06,North,0,0.0,0.0,97,0.00,CLR,,0.00,WeatherDisplay:10.37,2013-06-09 02:38:00,
2013-06-08 22:43:00,69.4,68.9,30.07,North,0,0.0,0.0,98,0.00,CLR,,0.00,WeatherDisplay:10.37,2013-06-09 02:43:00,
2013-06-08 22:48:00,69.4,68.9,30.07,North,0,0.0,0.0,98,0.00,CLR,,0.00,WeatherDisplay:10.37,2013-06-09 02:48:00,
2013-06-08 22:53:00,69.3,68.7,30.07,NW,315,0.0,0.0,98,0.00,CLR,,0.00,WeatherDisplay:10.37,2013-06-09 02:53:00,
2013-06-08 22:58:00,69.1,68.5,30.07,NW,315,0.0,0.0,98,0.00,CLR,,0.00,WeatherDisplay:10.37,2013-06-09 02:58:00,
2013-06-08 23:03:00,69.1,68.5,30.08,NW,315,0.0,0.0,98,0.00,CLR,,0.00,WeatherDisplay:10.37,2013-06-09 03:03:00,
2013-06-08 23:08:00,68.9,68.6,30.08,NW,315,0.0,0.0,99,0.00,CLR,,0.00,WeatherDisplay:10.37,2013-06-09 03:08:00,
2013-06-08 23:13:00,68.9,68.6,30.07,NW,315,0.0,0.0,99,0.00,CLR,,0.00,WeatherDisplay:10.37,2013-06-09 03:13:00,
2013-06-08 23:18:00,68.9,68.6,30.08,NW,315,0.0,0.0,99,0.00,CLR,,0.00,WeatherDisplay:10.37,2013-06-09 03:18:00,
2013-06-08 23:23:00,68.9,68.6,30.08,NW,315,0.0,0.0,99,0.00,CLR,,0.00,WeatherDisplay:10.37,2013-06-09 03:23:00,
2013-06-08 23:28:00,68.7,68.4,30.08,NW,315,0.0,0.0,99,0.00,CLR,,0.00,WeatherDisplay:10.37,2013-06-09 03:28:00,
2013-06-08 23:33:00,68.7,68.4,30.07,NW,315,0.0,0.0,99,0.00,CLR,,0.00,WeatherDisplay:10.37,2013-06-09 03:33:00,
2013-06-08 23:38:00,68.7,68.4,30.07,NW,315,0.0,0.0,99,0.00,CLR,,0.00,WeatherDisplay:10.37,2013-06-09 03:38:00,
2013-06-08 23:43:00,68.5,68.2,30.08,NW,315,0.0,0.0,99,0.00,CLR,,0.00,WeatherDisplay:10.37,2013-06-09 03:43:00,
2013-06-08 23:48:00,68.5,68.2,30.08,NW,315,0.0,0.0,99,0.00,CLR,,0.00,WeatherDisplay:10.37,2013-06-09 03:48:00,
2013-06-08 23:53:00,68.4,68.1,30.08,NW,315,0.0,0.0,99,0.00,CLR,,0.00,WeatherDisplay:10.37,2013-06-09 03:53:00,
2013-06-08 23:58:00,68.4,68.1,30.08,NW,315,0.0,0.0,99,0.00,CLR,,0.00,WeatherDisplay:10.37,2013-06-09 03:58:00,